Year,Month,Day,Hour,Minute,Value (Times are PST for insolation in W/m^2)
2022,02,01,00,00,0.00
2022,02,01,00,01,0.00
2022,02,01,00,02,0.00
2022,02,01,00,03,0.00
2022,02,01,00,04,0.00
2022,02,01,00,05,0.00
2022,02,01,00,06,0.00
2022,02,01,00,07,0.00
2022,02,01,00,08,0.00
2022,02,01,00,09,0.00
2022,02,01,00,10,0.00
2022,02,01,00,11,0.00
2022,02,01,00,12,0.00
2022,02,01,00,13,0.00
2022,02,01,00,14,0.00
2022,02,01,00,15,0.00
2022,02,01,00,16,0.00
2022,02,01,00,17,0.00
2022,02,01,00,18,0.00
2022,02,01,00,19,0.00
2022,02,01,00,20,0.00
2022,02,01,00,21,0.00
2022,02,01,00,22,0.00
2022,02,01,00,23,0.00
2022,02,01,00,24,0.00
2022,02,01,00,25,0.00
2022,02,01,00,26,0.00
2022,02,01,00,27,0.00
2022,02,01,00,28,0.00
2022,02,01,00,29,0.00
2022,02,01,00,30,0.00
2022,02,01,00,31,0.00
2022,02,01,00,32,0.00
2022,02,01,00,33,0.00
2022,02,01,00,34,0.00
2022,02,01,00,35,0.00
2022,02,01,00,36,0.00
2022,02,01,00,37,0.00
2022,02,01,00,38,0.00
2022,02,01,00,39,0.00
2022,02,01,00,40,0.00
2022,02,01,00,41,0.00
2022,02,01,00,42,0.00
2022,02,01,00,43,0.00
2022,02,01,00,44,0.00
2022,02,01,00,45,0.00
2022,02,01,00,46,0.00
2022,02,01,00,47,0.00
2022,02,01,00,48,0.00
2022,02,01,00,49,0.00
2022,02,01,00,50,0.00
2022,02,01,00,51,0.00
2022,02,01,00,52,0.00
2022,02,01,00,53,0.00
2022,02,01,00,54,0.00
2022,02,01,00,55,0.00
2022,02,01,00,56,0.00
2022,02,01,00,57,0.00
2022,02,01,00,58,0.00
2022,02,01,00,59,0.00
2022,02,01,01,00,0.00
2022,02,01,01,01,0.00
2022,02,01,01,02,0.00
2022,02,01,01,03,0.00
2022,02,01,01,04,0.00
2022,02,01,01,05,0.00
2022,02,01,01,06,0.00
2022,02,01,01,07,0.00
2022,02,01,01,08,0.00
2022,02,01,01,09,0.00
2022,02,01,01,10,0.00
2022,02,01,01,11,0.00
2022,02,01,01,12,0.00
2022,02,01,01,13,0.00
2022,02,01,01,14,0.00
2022,02,01,01,15,0.00
2022,02,01,01,16,0.00
2022,02,01,01,17,0.00
2022,02,01,01,18,0.00
2022,02,01,01,19,0.00
2022,02,01,01,20,0.00
2022,02,01,01,21,0.00
2022,02,01,01,22,0.00
2022,02,01,01,23,0.00
2022,02,01,01,24,0.00
2022,02,01,01,25,0.00
2022,02,01,01,26,0.00
2022,02,01,01,27,0.00
2022,02,01,01,28,0.00
2022,02,01,01,29,0.00
2022,02,01,01,30,0.00
2022,02,01,01,31,0.00
2022,02,01,01,32,0.00
2022,02,01,01,33,0.00
2022,02,01,01,34,0.00
2022,02,01,01,35,0.00
2022,02,01,01,36,0.00
2022,02,01,01,37,0.00
2022,02,01,01,38,0.00
2022,02,01,01,39,0.00
2022,02,01,01,40,0.00
2022,02,01,01,41,0.00
2022,02,01,01,42,0.00
2022,02,01,01,43,0.00
2022,02,01,01,44,0.00
2022,02,01,01,45,0.00
2022,02,01,01,46,0.00
2022,02,01,01,47,0.00
2022,02,01,01,48,0.00
2022,02,01,01,49,0.00
2022,02,01,01,50,0.00
2022,02,01,01,51,0.00
2022,02,01,01,52,0.00
2022,02,01,01,53,0.00
2022,02,01,01,54,0.00
2022,02,01,01,55,0.00
2022,02,01,01,56,0.00
2022,02,01,01,57,0.00
2022,02,01,01,58,0.00
2022,02,01,01,59,0.00
2022,02,01,02,00,0.00
2022,02,01,02,01,0.00
2022,02,01,02,02,0.00
2022,02,01,02,03,0.00
2022,02,01,02,04,0.00
2022,02,01,02,05,0.00
2022,02,01,02,06,0.00
2022,02,01,02,07,0.00
2022,02,01,02,08,0.00
2022,02,01,02,09,0.00
2022,02,01,02,10,0.00
2022,02,01,02,11,0.00
2022,02,01,02,12,0.00
2022,02,01,02,13,0.00
2022,02,01,02,14,0.00
2022,02,01,02,15,0.00
2022,02,01,02,16,0.00
2022,02,01,02,17,0.00
2022,02,01,02,18,0.00
2022,02,01,02,19,0.00
2022,02,01,02,20,0.00
2022,02,01,02,21,0.00
2022,02,01,02,22,0.00
2022,02,01,02,23,0.00
2022,02,01,02,24,0.00
2022,02,01,02,25,0.00
2022,02,01,02,26,0.00
2022,02,01,02,27,0.00
2022,02,01,02,28,0.00
2022,02,01,02,29,0.00
2022,02,01,02,30,0.00
2022,02,01,02,31,0.00
2022,02,01,02,32,0.00
2022,02,01,02,33,0.00
2022,02,01,02,34,0.00
2022,02,01,02,35,0.00
2022,02,01,02,36,0.00
2022,02,01,02,37,0.00
2022,02,01,02,38,0.00
2022,02,01,02,39,0.00
2022,02,01,02,40,0.00
2022,02,01,02,41,0.00
2022,02,01,02,42,0.00
2022,02,01,02,43,0.00
2022,02,01,02,44,0.00
2022,02,01,02,45,0.00
2022,02,01,02,46,0.00
2022,02,01,02,47,0.00
2022,02,01,02,48,0.00
2022,02,01,02,49,0.00
2022,02,01,02,50,0.00
2022,02,01,02,51,0.00
2022,02,01,02,52,0.00
2022,02,01,02,53,0.00
2022,02,01,02,54,0.00
2022,02,01,02,55,0.00
2022,02,01,02,56,0.00
2022,02,01,02,57,0.00
2022,02,01,02,58,0.00
2022,02,01,02,59,0.00
2022,02,01,03,00,0.00
2022,02,01,03,01,0.00
2022,02,01,03,02,0.00
2022,02,01,03,03,0.00
2022,02,01,03,04,0.00
2022,02,01,03,05,0.00
2022,02,01,03,06,0.00
2022,02,01,03,07,0.00
2022,02,01,03,08,0.00
2022,02,01,03,09,0.00
2022,02,01,03,10,0.00
2022,02,01,03,11,0.00
2022,02,01,03,12,0.00
2022,02,01,03,13,0.00
2022,02,01,03,14,0.00
2022,02,01,03,15,0.00
2022,02,01,03,16,0.00
2022,02,01,03,17,0.00
2022,02,01,03,18,0.00
2022,02,01,03,19,0.00
2022,02,01,03,20,0.00
2022,02,01,03,21,0.00
2022,02,01,03,22,0.00
2022,02,01,03,23,0.00
2022,02,01,03,24,0.00
2022,02,01,03,25,0.00
2022,02,01,03,26,0.00
2022,02,01,03,27,0.00
2022,02,01,03,28,0.00
2022,02,01,03,29,0.00
2022,02,01,03,30,0.00
2022,02,01,03,31,0.00
2022,02,01,03,32,0.00
2022,02,01,03,33,0.00
2022,02,01,03,34,0.00
2022,02,01,03,35,0.00
2022,02,01,03,36,0.00
2022,02,01,03,37,0.00
2022,02,01,03,38,0.00
2022,02,01,03,39,0.00
2022,02,01,03,40,0.00
2022,02,01,03,41,0.00
2022,02,01,03,42,0.00
2022,02,01,03,43,0.00
2022,02,01,03,44,0.00
2022,02,01,03,45,0.00
2022,02,01,03,46,0.00
2022,02,01,03,47,0.00
2022,02,01,03,48,0.00
2022,02,01,03,49,0.00
2022,02,01,03,50,0.00
2022,02,01,03,51,0.00
2022,02,01,03,52,0.00
2022,02,01,03,53,0.00
2022,02,01,03,54,0.00
2022,02,01,03,55,0.00
2022,02,01,03,56,0.00
2022,02,01,03,57,0.00
2022,02,01,03,58,0.00
2022,02,01,03,59,0.00
2022,02,01,04,00,0.00
2022,02,01,04,01,0.00
2022,02,01,04,02,0.00
2022,02,01,04,03,0.00
2022,02,01,04,04,0.00
2022,02,01,04,05,0.00
2022,02,01,04,06,0.00
2022,02,01,04,07,0.00
2022,02,01,04,08,0.00
2022,02,01,04,09,0.00
2022,02,01,04,10,0.00
2022,02,01,04,11,0.00
2022,02,01,04,12,0.00
2022,02,01,04,13,0.00
2022,02,01,04,14,0.00
2022,02,01,04,15,0.00
2022,02,01,04,16,0.00
2022,02,01,04,17,0.00
2022,02,01,04,18,0.00
2022,02,01,04,19,0.00
2022,02,01,04,20,0.00
2022,02,01,04,21,0.00
2022,02,01,04,22,0.00
2022,02,01,04,23,0.00
2022,02,01,04,24,0.00
2022,02,01,04,25,0.00
2022,02,01,04,26,0.00
2022,02,01,04,27,0.00
2022,02,01,04,28,0.00
2022,02,01,04,29,0.00
2022,02,01,04,30,0.00
2022,02,01,04,31,0.00
2022,02,01,04,32,0.00
2022,02,01,04,33,0.00
2022,02,01,04,34,0.00
2022,02,01,04,35,0.00
2022,02,01,04,36,0.00
2022,02,01,04,37,0.00
2022,02,01,04,38,0.00
2022,02,01,04,39,0.00
2022,02,01,04,40,0.00
2022,02,01,04,41,0.00
2022,02,01,04,42,0.00
2022,02,01,04,43,0.00
2022,02,01,04,44,0.00
2022,02,01,04,45,0.00
2022,02,01,04,46,0.00
2022,02,01,04,47,0.00
2022,02,01,04,48,0.00
2022,02,01,04,49,0.00
2022,02,01,04,50,0.00
2022,02,01,04,51,0.00
2022,02,01,04,52,0.00
2022,02,01,04,53,0.00
2022,02,01,04,54,0.00
2022,02,01,04,55,0.00
2022,02,01,04,56,0.00
2022,02,01,04,57,0.00
2022,02,01,04,58,0.00
2022,02,01,04,59,0.00
2022,02,01,05,00,0.00
2022,02,01,05,01,0.00
2022,02,01,05,02,0.00
2022,02,01,05,03,0.00
2022,02,01,05,04,0.00
2022,02,01,05,05,0.00
2022,02,01,05,06,0.00
2022,02,01,05,07,0.00
2022,02,01,05,08,0.00
2022,02,01,05,09,0.00
2022,02,01,05,10,0.00
2022,02,01,05,11,0.00
2022,02,01,05,12,0.00
2022,02,01,05,13,0.00
2022,02,01,05,14,0.00
2022,02,01,05,15,0.00
2022,02,01,05,16,0.00
2022,02,01,05,17,0.00
2022,02,01,05,18,0.00
2022,02,01,05,19,0.00
2022,02,01,05,20,0.00
2022,02,01,05,21,0.00
2022,02,01,05,22,0.00
2022,02,01,05,23,0.00
2022,02,01,05,24,0.00
2022,02,01,05,25,0.00
2022,02,01,05,26,0.00
2022,02,01,05,27,0.00
2022,02,01,05,28,0.00
2022,02,01,05,29,0.00
2022,02,01,05,30,0.00
2022,02,01,05,31,0.00
2022,02,01,05,32,0.00
2022,02,01,05,33,0.00
2022,02,01,05,34,0.00
2022,02,01,05,35,0.00
2022,02,01,05,36,0.00
2022,02,01,05,37,0.00
2022,02,01,05,38,0.00
2022,02,01,05,39,0.00
2022,02,01,05,40,0.00
2022,02,01,05,41,0.00
2022,02,01,05,42,0.00
2022,02,01,05,43,0.00
2022,02,01,05,44,0.00
2022,02,01,05,45,0.00
2022,02,01,05,46,0.00
2022,02,01,05,47,0.00
2022,02,01,05,48,0.00
2022,02,01,05,49,0.00
2022,02,01,05,50,0.00
2022,02,01,05,51,0.00
2022,02,01,05,52,0.00
2022,02,01,05,53,0.00
2022,02,01,05,54,0.00
2022,02,01,05,55,0.00
2022,02,01,05,56,0.00
2022,02,01,05,57,0.00
2022,02,01,05,58,0.00
2022,02,01,05,59,0.00
2022,02,01,06,00,0.00
2022,02,01,06,01,0.00
2022,02,01,06,02,0.00
2022,02,01,06,03,0.00
2022,02,01,06,04,0.00
2022,02,01,06,05,0.00
2022,02,01,06,06,0.00
2022,02,01,06,07,0.00
2022,02,01,06,08,0.00
2022,02,01,06,09,0.00
2022,02,01,06,10,0.00
2022,02,01,06,11,0.00
2022,02,01,06,12,0.00
2022,02,01,06,13,0.00
2022,02,01,06,14,0.00
2022,02,01,06,15,0.00
2022,02,01,06,16,0.00
2022,02,01,06,17,0.00
2022,02,01,06,18,0.00
2022,02,01,06,19,0.00
2022,02,01,06,20,0.00
2022,02,01,06,21,0.00
2022,02,01,06,22,0.00
2022,02,01,06,23,0.00
2022,02,01,06,24,0.00
2022,02,01,06,25,0.00
2022,02,01,06,26,0.00
2022,02,01,06,27,0.00
2022,02,01,06,28,0.00
2022,02,01,06,29,0.00
2022,02,01,06,30,0.00
2022,02,01,06,31,0.00
2022,02,01,06,32,0.00
2022,02,01,06,33,0.00
2022,02,01,06,34,0.00
2022,02,01,06,35,0.00
2022,02,01,06,36,0.00
2022,02,01,06,37,0.00
2022,02,01,06,38,0.00
2022,02,01,06,39,0.00
2022,02,01,06,40,0.00
2022,02,01,06,41,0.00
2022,02,01,06,42,0.00
2022,02,01,06,43,0.00
2022,02,01,06,44,0.00
2022,02,01,06,45,0.00
2022,02,01,06,46,0.00
2022,02,01,06,47,0.00
2022,02,01,06,48,0.00
2022,02,01,06,49,0.00
2022,02,01,06,50,0.00
2022,02,01,06,51,0.00
2022,02,01,06,52,0.00
2022,02,01,06,53,0.00
2022,02,01,06,54,0.00
2022,02,01,06,55,0.00
2022,02,01,06,56,0.00
2022,02,01,06,57,0.00
2022,02,01,06,58,0.00
2022,02,01,06,59,0.00
2022,02,01,07,00,0.00
2022,02,01,07,01,0.00
2022,02,01,07,02,0.00
2022,02,01,07,03,0.00
2022,02,01,07,04,0.00
2022,02,01,07,05,0.00
2022,02,01,07,06,0.00
2022,02,01,07,07,0.00
2022,02,01,07,08,0.00
2022,02,01,07,09,0.00
2022,02,01,07,10,0.00
2022,02,01,07,11,0.00
2022,02,01,07,12,0.00
2022,02,01,07,13,0.00
2022,02,01,07,14,0.00
2022,02,01,07,15,0.00
2022,02,01,07,16,0.00
2022,02,01,07,17,0.00
2022,02,01,07,18,0.00
2022,02,01,07,19,0.00
2022,02,01,07,20,0.00
2022,02,01,07,21,0.00
2022,02,01,07,22,0.00
2022,02,01,07,23,0.00
2022,02,01,07,24,0.00
2022,02,01,07,25,0.00
2022,02,01,07,26,0.00
2022,02,01,07,27,0.00
2022,02,01,07,28,0.00
2022,02,01,07,29,0.00
2022,02,01,07,30,0.00
2022,02,01,07,31,0.00
2022,02,01,07,32,0.00
2022,02,01,07,33,0.00
2022,02,01,07,34,0.00
2022,02,01,07,35,0.00
2022,02,01,07,36,0.00
2022,02,01,07,37,0.00
2022,02,01,07,38,0.00
2022,02,01,07,39,0.00
2022,02,01,07,40,0.00
2022,02,01,07,41,0.00
2022,02,01,07,42,0.00
2022,02,01,07,43,0.00
2022,02,01,07,44,0.00
2022,02,01,07,45,0.00
2022,02,01,07,46,0.00
2022,02,01,07,47,0.00
2022,02,01,07,48,0.00
2022,02,01,07,49,0.00
2022,02,01,07,50,0.00
2022,02,01,07,51,0.00
2022,02,01,07,52,0.00
2022,02,01,07,53,0.00
2022,02,01,07,54,0.00
2022,02,01,07,55,0.00
2022,02,01,07,56,0.00
2022,02,01,07,57,4.20
2022,02,01,07,58,4.60
2022,02,01,07,59,0.00
2022,02,01,08,00,0.00
2022,02,01,08,01,0.00
2022,02,01,08,02,0.00
2022,02,01,08,03,0.00
2022,02,01,08,04,0.00
2022,02,01,08,05,4.80
2022,02,01,08,06,5.00
2022,02,01,08,07,5.00
2022,02,01,08,08,5.00
2022,02,01,08,09,5.00
2022,02,01,08,10,5.00
2022,02,01,08,11,5.00
2022,02,01,08,12,5.00
2022,02,01,08,13,5.00
2022,02,01,08,14,5.00
2022,02,01,08,15,5.00
2022,02,01,08,16,5.00
2022,02,01,08,17,5.00
2022,02,01,08,18,5.00
2022,02,01,08,19,5.00
2022,02,01,08,20,5.00
2022,02,01,08,21,5.00
2022,02,01,08,22,5.00
2022,02,01,08,23,5.00
2022,02,01,08,24,6.40
2022,02,01,08,25,7.00
2022,02,01,08,26,7.00
2022,02,01,08,27,7.00
2022,02,01,08,28,7.00
2022,02,01,08,29,7.00
2022,02,01,08,30,7.00
2022,02,01,08,31,7.00
2022,02,01,08,32,7.00
2022,02,01,08,33,7.00
2022,02,01,08,34,7.00
2022,02,01,08,35,7.00
2022,02,01,08,36,7.00
2022,02,01,08,37,7.00
2022,02,01,08,38,8.40
2022,02,01,08,39,9.00
2022,02,01,08,40,9.00
2022,02,01,08,41,9.00
2022,02,01,08,42,9.00
2022,02,01,08,43,9.00
2022,02,01,08,44,9.00
2022,02,01,08,45,9.00
2022,02,01,08,46,9.00
2022,02,01,08,47,9.00
2022,02,01,08,48,9.00
2022,02,01,08,49,9.00
2022,02,01,08,50,9.00
2022,02,01,08,51,9.00
2022,02,01,08,52,9.00
2022,02,01,08,53,9.00
2022,02,01,08,54,10.90
2022,02,01,08,55,11.00
2022,02,01,08,56,11.00
2022,02,01,08,57,11.00
2022,02,01,08,58,11.00
2022,02,01,08,59,11.00
2022,02,01,09,00,11.00
2022,02,01,09,01,11.00
2022,02,01,09,02,11.00
2022,02,01,09,03,11.00
2022,02,01,09,04,11.00
2022,02,01,09,05,11.00
2022,02,01,09,06,11.00
2022,02,01,09,07,11.00
2022,02,01,09,08,11.00
2022,02,01,09,09,11.00
2022,02,01,09,10,11.00
2022,02,01,09,11,11.00
2022,02,01,09,12,11.00
2022,02,01,09,13,11.70
2022,02,01,09,14,12.00
2022,02,01,09,15,12.00
2022,02,01,09,16,12.00
2022,02,01,09,17,12.00
2022,02,01,09,18,12.00
2022,02,01,09,19,12.00
2022,02,01,09,20,12.00
2022,02,01,09,21,12.00
2022,02,01,09,22,12.00
2022,02,01,09,23,12.00
2022,02,01,09,24,12.00
2022,02,01,09,25,12.00
2022,02,01,09,26,12.00
2022,02,01,09,27,12.00
2022,02,01,09,28,12.00
2022,02,01,09,29,13.90
2022,02,01,09,30,14.00
2022,02,01,09,31,14.00
2022,02,01,09,32,14.90
2022,02,01,09,33,16.00
2022,02,01,09,34,14.60
2022,02,01,09,35,15.60
2022,02,01,09,36,14.10
2022,02,01,09,37,15.00
2022,02,01,09,38,19.70
2022,02,01,09,39,21.90
2022,02,01,09,40,24.20
2022,02,01,09,41,25.70
2022,02,01,09,42,26.00
2022,02,01,09,43,28.20
2022,02,01,09,44,29.60
2022,02,01,09,45,28.00
2022,02,01,09,46,28.90
2022,02,01,09,47,31.20
2022,02,01,09,48,29.10
2022,02,01,09,49,29.70
2022,02,01,09,50,25.30
2022,02,01,09,51,26.00
2022,02,01,09,52,26.00
2022,02,01,09,53,25.50
2022,02,01,09,54,25.60
2022,02,01,09,55,25.30
2022,02,01,09,56,25.00
2022,02,01,09,57,24.80
2022,02,01,09,58,23.50
2022,02,01,09,59,25.30
2022,02,01,10,00,28.90
2022,02,01,10,01,33.70
2022,02,01,10,02,37.90
2022,02,01,10,03,43.20
2022,02,01,10,04,47.30
2022,02,01,10,05,53.20
2022,02,01,10,06,53.70
2022,02,01,10,07,50.20
2022,02,01,10,08,49.40
2022,02,01,10,09,49.60
2022,02,01,10,10,41.40
2022,02,01,10,11,36.90
2022,02,01,10,12,34.60
2022,02,01,10,13,33.70
2022,02,01,10,14,34.10
2022,02,01,10,15,34.20
2022,02,01,10,16,35.00
2022,02,01,10,17,39.20
2022,02,01,10,18,39.00
2022,02,01,10,19,39.20
2022,02,01,10,20,39.70
2022,02,01,10,21,41.30
2022,02,01,10,22,45.80
2022,02,01,10,23,46.30
2022,02,01,10,24,40.90
2022,02,01,10,25,42.20
2022,02,01,10,26,43.20
2022,02,01,10,27,39.70
2022,02,01,10,28,39.00
2022,02,01,10,29,37.80
2022,02,01,10,30,35.50
2022,02,01,10,31,35.00
2022,02,01,10,32,36.90
2022,02,01,10,33,37.70
2022,02,01,10,34,42.10
2022,02,01,10,35,49.40
2022,02,01,10,36,57.00
2022,02,01,10,37,62.20
2022,02,01,10,38,68.00
2022,02,01,10,39,69.00
2022,02,01,10,40,68.10
2022,02,01,10,41,65.60
2022,02,01,10,42,67.00
2022,02,01,10,43,67.00
2022,02,01,10,44,67.00
2022,02,01,10,45,65.30
2022,02,01,10,46,63.60
2022,02,01,10,47,69.00
2022,02,01,10,48,69.00
2022,02,01,10,49,68.10
2022,02,01,10,50,67.00
2022,02,01,10,51,68.40
2022,02,01,10,52,67.30
2022,02,01,10,53,71.50
2022,02,01,10,54,68.60
2022,02,01,10,55,64.60
2022,02,01,10,56,56.80
2022,02,01,10,57,50.60
2022,02,01,10,58,53.80
2022,02,01,10,59,67.80
2022,02,01,11,00,76.40
2022,02,01,11,01,72.60
2022,02,01,11,02,65.50
2022,02,01,11,03,62.00
2022,02,01,11,04,62.00
2022,02,01,11,05,59.10
2022,02,01,11,06,58.00
2022,02,01,11,07,54.30
2022,02,01,11,08,57.60
2022,02,01,11,09,65.10
2022,02,01,11,10,68.00
2022,02,01,11,11,68.20
2022,02,01,11,12,69.70
2022,02,01,11,13,67.50
2022,02,01,11,14,62.30
2022,02,01,11,15,63.50
2022,02,01,11,16,66.60
2022,02,01,11,17,72.80
2022,02,01,11,18,76.60
2022,02,01,11,19,77.00
2022,02,01,11,20,76.20
2022,02,01,11,21,72.50
2022,02,01,11,22,77.00
2022,02,01,11,23,77.00
2022,02,01,11,24,76.50
2022,02,01,11,25,76.00
2022,02,01,11,26,73.10
2022,02,01,11,27,67.80
2022,02,01,11,28,64.90
2022,02,01,11,29,63.50
2022,02,01,11,30,65.60
2022,02,01,11,31,68.40
2022,02,01,11,32,71.20
2022,02,01,11,33,72.00
2022,02,01,11,34,72.00
2022,02,01,11,35,72.00
2022,02,01,11,36,71.30
2022,02,01,11,37,70.00
2022,02,01,11,38,76.20
2022,02,01,11,39,82.20
2022,02,01,11,40,76.40
2022,02,01,11,41,62.20
2022,02,01,11,42,67.10
2022,02,01,11,43,71.00
2022,02,01,11,44,67.70
2022,02,01,11,45,72.50
2022,02,01,11,46,74.10
2022,02,01,11,47,77.10
2022,02,01,11,48,88.30
2022,02,01,11,49,77.90
2022,02,01,11,50,94.70
2022,02,01,11,51,92.30
2022,02,01,11,52,71.70
2022,02,01,11,53,66.60
2022,02,01,11,54,65.00
2022,02,01,11,55,55.70
2022,02,01,11,56,42.40
2022,02,01,11,57,65.10
2022,02,01,11,58,75.00
2022,02,01,11,59,81.20
2022,02,01,12,00,77.60
2022,02,01,12,01,74.80
2022,02,01,12,02,59.10
2022,02,01,12,03,51.50
2022,02,01,12,04,32.40
2022,02,01,12,05,29.30
2022,02,01,12,06,28.90
2022,02,01,12,07,30.00
2022,02,01,12,08,57.00
2022,02,01,12,09,49.70
2022,02,01,12,10,39.80
2022,02,01,12,11,46.70
2022,02,01,12,12,47.40
2022,02,01,12,13,60.20
2022,02,01,12,14,73.80
2022,02,01,12,15,51.00
2022,02,01,12,16,40.60
2022,02,01,12,17,44.60
2022,02,01,12,18,74.70
2022,02,01,12,19,69.00
2022,02,01,12,20,69.00
2022,02,01,12,21,63.80
2022,02,01,12,22,62.20
2022,02,01,12,23,59.00
2022,02,01,12,24,45.90
2022,02,01,12,25,38.10
2022,02,01,12,26,34.40
2022,02,01,12,27,33.00
2022,02,01,12,28,31.30
2022,02,01,12,29,31.40
2022,02,01,12,30,32.00
2022,02,01,12,31,27.90
2022,02,01,12,32,26.00
2022,02,01,12,33,26.00
2022,02,01,12,34,26.90
2022,02,01,12,35,29.20
2022,02,01,12,36,31.40
2022,02,01,12,37,30.30
2022,02,01,12,38,46.00
2022,02,01,12,39,56.50
2022,02,01,12,40,61.20
2022,02,01,12,41,54.40
2022,02,01,12,42,52.00
2022,02,01,12,43,58.40
2022,02,01,12,44,56.90
2022,02,01,12,45,48.60
2022,02,01,12,46,67.80
2022,02,01,12,47,76.60
2022,02,01,12,48,68.90
2022,02,01,12,49,65.00
2022,02,01,12,50,65.00
2022,02,01,12,51,63.30
2022,02,01,12,52,74.50
2022,02,01,12,53,51.00
2022,02,01,12,54,53.40
2022,02,01,12,55,51.80
2022,02,01,12,56,37.10
2022,02,01,12,57,29.20
2022,02,01,12,58,31.40
2022,02,01,12,59,38.50
2022,02,01,13,00,39.80
2022,02,01,13,01,38.30
2022,02,01,13,02,38.00
2022,02,01,13,03,39.00
2022,02,01,13,04,39.00
2022,02,01,13,05,39.00
2022,02,01,13,06,44.20
2022,02,01,13,07,49.00
2022,02,01,13,08,50.50
2022,02,01,13,09,54.90
2022,02,01,13,10,54.80
2022,02,01,13,11,54.00
2022,02,01,13,12,58.80
2022,02,01,13,13,56.20
2022,02,01,13,14,55.50
2022,02,01,13,15,54.00
2022,02,01,13,16,55.00
2022,02,01,13,17,54.80
2022,02,01,13,18,54.00
2022,02,01,13,19,53.20
2022,02,01,13,20,52.80
2022,02,01,13,21,50.50
2022,02,01,13,22,48.00
2022,02,01,13,23,45.20
2022,02,01,13,24,41.70
2022,02,01,13,25,39.30
2022,02,01,13,26,37.30
2022,02,01,13,27,35.00
2022,02,01,13,28,32.40
2022,02,01,13,29,30.00
2022,02,01,13,30,27.80
2022,02,01,13,31,25.00
2022,02,01,13,32,23.60
2022,02,01,13,33,21.30
2022,02,01,13,34,20.80
2022,02,01,13,35,19.00
2022,02,01,13,36,19.00
2022,02,01,13,37,19.00
2022,02,01,13,38,18.40
2022,02,01,13,39,21.50
2022,02,01,13,40,24.70
2022,02,01,13,41,19.20
2022,02,01,13,42,19.40
2022,02,01,13,43,19.50
2022,02,01,13,44,19.20
2022,02,01,13,45,24.70
2022,02,01,13,46,26.00
2022,02,01,13,47,26.00
2022,02,01,13,48,18.30
2022,02,01,13,49,19.00
2022,02,01,13,50,23.00
2022,02,01,13,51,23.00
2022,02,01,13,52,21.80
2022,02,01,13,53,24.60
2022,02,01,13,54,30.80
2022,02,01,13,55,39.90
2022,02,01,13,56,54.50
2022,02,01,13,57,50.90
2022,02,01,13,58,37.70
2022,02,01,13,59,35.00
2022,02,01,14,00,37.80
2022,02,01,14,01,39.00
2022,02,01,14,02,32.30
2022,02,01,14,03,31.40
2022,02,01,14,04,25.00
2022,02,01,14,05,22.10
2022,02,01,14,06,21.00
2022,02,01,14,07,22.40
2022,02,01,14,08,19.80
2022,02,01,14,09,19.20
2022,02,01,14,10,21.00
2022,02,01,14,11,20.30
2022,02,01,14,12,19.00
2022,02,01,14,13,21.30
2022,02,01,14,14,23.00
2022,02,01,14,15,24.70
2022,02,01,14,16,25.00
2022,02,01,14,17,25.00
2022,02,01,14,18,25.30
2022,02,01,14,19,26.00
2022,02,01,14,20,28.40
2022,02,01,14,21,30.00
2022,02,01,14,22,30.00
2022,02,01,14,23,26.10
2022,02,01,14,24,24.50
2022,02,01,14,25,22.30
2022,02,01,14,26,20.10
2022,02,01,14,27,20.20
2022,02,01,14,28,21.00
2022,02,01,14,29,22.70
2022,02,01,14,30,23.00
2022,02,01,14,31,23.00
2022,02,01,14,32,21.60
2022,02,01,14,33,19.00
2022,02,01,14,34,19.00
2022,02,01,14,35,18.30
2022,02,01,14,36,18.00
2022,02,01,14,37,18.00
2022,02,01,14,38,18.00
2022,02,01,14,39,18.00
2022,02,01,14,40,18.00
2022,02,01,14,41,16.80
2022,02,01,14,42,16.00
2022,02,01,14,43,17.60
2022,02,01,14,44,16.10
2022,02,01,14,45,16.00
2022,02,01,14,46,16.00
2022,02,01,14,47,18.30
2022,02,01,14,48,18.00
2022,02,01,14,49,16.00
2022,02,01,14,50,17.70
2022,02,01,14,51,18.10
2022,02,01,14,52,18.80
2022,02,01,14,53,18.00
2022,02,01,14,54,18.00
2022,02,01,14,55,16.80
2022,02,01,14,56,16.00
2022,02,01,14,57,16.00
2022,02,01,14,58,14.20
2022,02,01,14,59,16.50
2022,02,01,15,00,17.40
2022,02,01,15,01,16.00
2022,02,01,15,02,16.00
2022,02,01,15,03,18.10
2022,02,01,15,04,18.20
2022,02,01,15,05,17.80
2022,02,01,15,06,16.00
2022,02,01,15,07,16.00
2022,02,01,15,08,16.00
2022,02,01,15,09,18.80
2022,02,01,15,10,17.50
2022,02,01,15,11,16.00
2022,02,01,15,12,15.80
2022,02,01,15,13,14.50
2022,02,01,15,14,16.00
2022,02,01,15,15,16.00
2022,02,01,15,16,14.80
2022,02,01,15,17,14.00
2022,02,01,15,18,14.00
2022,02,01,15,19,14.00
2022,02,01,15,20,14.00
2022,02,01,15,21,14.00
2022,02,01,15,22,14.00
2022,02,01,15,23,14.00
2022,02,01,15,24,14.00
2022,02,01,15,25,15.70
2022,02,01,15,26,17.90
2022,02,01,15,27,17.60
2022,02,01,15,28,16.00
2022,02,01,15,29,16.00
2022,02,01,15,30,17.70
2022,02,01,15,31,20.40
2022,02,01,15,32,18.60
2022,02,01,15,33,18.00
2022,02,01,15,34,18.70
2022,02,01,15,35,23.90
2022,02,01,15,36,33.20
2022,02,01,15,37,31.80
2022,02,01,15,38,22.90
2022,02,01,15,39,19.30
2022,02,01,15,40,21.10
2022,02,01,15,41,22.50
2022,02,01,15,42,21.60
2022,02,01,15,43,23.90
2022,02,01,15,44,22.70
2022,02,01,15,45,19.60
2022,02,01,15,46,18.20
2022,02,01,15,47,18.10
2022,02,01,15,48,19.40
2022,02,01,15,49,21.00
2022,02,01,15,50,19.60
2022,02,01,15,51,15.80
2022,02,01,15,52,12.60
2022,02,01,15,53,12.00
2022,02,01,15,54,11.00
2022,02,01,15,55,11.00
2022,02,01,15,56,10.30
2022,02,01,15,57,9.00
2022,02,01,15,58,9.00
2022,02,01,15,59,9.00
2022,02,01,16,00,9.00
2022,02,01,16,01,11.00
2022,02,01,16,02,11.80
2022,02,01,16,03,11.00
2022,02,01,16,04,11.00
2022,02,01,16,05,11.00
2022,02,01,16,06,11.70
2022,02,01,16,07,11.20
2022,02,01,16,08,12.00
2022,02,01,16,09,12.00
2022,02,01,16,10,11.70
2022,02,01,16,11,11.00
2022,02,01,16,12,11.00
2022,02,01,16,13,11.00
2022,02,01,16,14,11.00
2022,02,01,16,15,9.20
2022,02,01,16,16,11.00
2022,02,01,16,17,11.00
2022,02,01,16,18,11.00
2022,02,01,16,19,9.80
2022,02,01,16,20,9.00
2022,02,01,16,21,9.00
2022,02,01,16,22,9.00
2022,02,01,16,23,9.00
2022,02,01,16,24,9.00
2022,02,01,16,25,9.00
2022,02,01,16,26,7.80
2022,02,01,16,27,7.00
2022,02,01,16,28,7.00
2022,02,01,16,29,7.00
2022,02,01,16,30,7.00
2022,02,01,16,31,7.00
2022,02,01,16,32,7.00
2022,02,01,16,33,7.00
2022,02,01,16,34,7.00
2022,02,01,16,35,7.00
2022,02,01,16,36,7.00
2022,02,01,16,37,7.00
2022,02,01,16,38,7.00
2022,02,01,16,39,7.00
2022,02,01,16,40,7.00
2022,02,01,16,41,7.00
2022,02,01,16,42,5.40
2022,02,01,16,43,5.00
2022,02,01,16,44,5.00
2022,02,01,16,45,5.00
2022,02,01,16,46,5.00
2022,02,01,16,47,5.00
2022,02,01,16,48,5.00
2022,02,01,16,49,5.00
2022,02,01,16,50,5.00
2022,02,01,16,51,5.00
2022,02,01,16,52,5.00
2022,02,01,16,53,5.00
2022,02,01,16,54,5.00
2022,02,01,16,55,5.00
2022,02,01,16,56,1.00
2022,02,01,16,57,0.00
2022,02,01,16,58,0.00
2022,02,01,16,59,0.00
2022,02,01,17,00,0.00
2022,02,01,17,01,0.00
2022,02,01,17,02,0.00
2022,02,01,17,03,0.00
2022,02,01,17,04,0.00
2022,02,01,17,05,0.00
2022,02,01,17,06,0.00
2022,02,01,17,07,0.00
2022,02,01,17,08,0.00
2022,02,01,17,09,0.00
2022,02,01,17,10,0.00
2022,02,01,17,11,0.00
2022,02,01,17,12,0.00
2022,02,01,17,13,0.00
2022,02,01,17,14,0.00
2022,02,01,17,15,0.00
2022,02,01,17,16,0.00
2022,02,01,17,17,0.00
2022,02,01,17,18,0.00
2022,02,01,17,19,0.00
2022,02,01,17,20,0.00
2022,02,01,17,21,0.00
2022,02,01,17,22,0.00
2022,02,01,17,23,0.00
2022,02,01,17,24,0.00
2022,02,01,17,25,0.00
2022,02,01,17,26,0.00
2022,02,01,17,27,0.00
2022,02,01,17,28,0.00
2022,02,01,17,29,0.00
2022,02,01,17,30,0.00
2022,02,01,17,31,0.00
2022,02,01,17,32,0.00
2022,02,01,17,33,0.00
2022,02,01,17,34,0.00
2022,02,01,17,35,0.00
2022,02,01,17,36,0.00
2022,02,01,17,37,0.00
2022,02,01,17,38,0.00
2022,02,01,17,39,0.00
2022,02,01,17,40,0.00
2022,02,01,17,41,0.00
2022,02,01,17,42,0.00
2022,02,01,17,43,0.00
2022,02,01,17,44,0.00
2022,02,01,17,45,0.00
2022,02,01,17,46,0.00